Location: Esterri de Aneo
(42.6284°N, 1.1223°E)
Time: 16:47:12
(UTC+00:00)

Cosmos 773 Rocket - Pass Details

Date: 11 December 2025
Orbit: 740 x 773 km, 74.1° (Epoch: 16 January)

Event Time Altitude Azimuth Distance (km) Brightness Sun altitude
Rises 16:58:11 0° 338° (NNW) 3,225 7.2 -6.7°
Reaches altitude 10° 17:00:33 10° 337° (NNW) 2,300 6.5 -7.1°
Maximum altitude 17:05:45 75° 253° (WSW) 796 4.3 -7.9°
Drops below altitude 10° 17:10:58 10° 168° (SSE) 2,303 6.6 -8.8°
Sets 17:13:21 0° 167° (SSE) 3,228 7.4 -9.2°
